Date,TemperatureHighF,TemperatureAvgF,TemperatureLowF,DewpointHighF,DewpointAvgF,DewpointLowF,HumidityHigh,HumidityAvg,HumidityLow,PressureMaxIn,PressureMinIn,WindSpeedMaxMPH,WindSpeedAvgMPH,GustSpeedMaxMPH,PrecipitationSumIn
2013-1-1,20,11,3,-100,-100,-100,0,0,100,0.00,40.00,0,-999,0,0.00
2013-1-2,36,23,5,-100,-100,-100,0,0,100,0.00,40.00,0,-999,0,0.00
2013-1-3,29,21,13,-100,-100,-100,0,0,100,0.00,40.00,0,-999,0,0.00
2013-1-4,31,19,7,-100,-100,-100,0,0,100,0.00,40.00,0,-999,0,0.00
2013-1-5,34,21,11,-100,-100,-100,0,0,100,0.00,40.00,0,-999,0,0.00
2013-1-6,30,20,12,-100,-100,-100,0,0,100,0.00,40.00,0,-999,0,0.00
2013-1-7,38,30,18,-100,-100,-100,0,0,100,0.00,40.00,0,-999,0,0.00
2013-1-8,36,24,14,-100,-100,-100,0,0,100,0.00,40.00,0,-999,0,0.00
2013-1-9,38,30,21,-100,-100,-100,0,0,100,0.00,40.00,0,-999,0,0.00
2013-1-10,38,33,21,-100,-100,-100,0,0,100,0.00,40.00,0,-999,0,0.00
2013-1-11,43,36,25,-100,-100,-100,0,0,100,0.00,40.00,0,-999,0,0.00
2013-1-12,26,18,14,-100,-100,-100,0,0,100,0.00,40.00,0,-999,0,0.00
2013-1-13,20,14,8,-100,-100,-100,0,0,100,0.00,40.00,0,-999,0,0.00
2013-1-14,29,18,9,-100,-100,-100,0,0,100,0.00,40.00,0,-999,0,0.00
2013-1-15,37,25,16,-100,-100,-100,0,0,100,0.00,40.00,0,-999,0,0.00
2013-1-16,52,39,22,-100,-100,-100,0,0,100,0.00,40.00,0,-999,0,0.00
2013-1-17,38,28,22,-100,-100,-100,0,0,100,0.00,40.00,0,-999,0,0.00
2013-1-18,54,40,28,-100,-100,-100,0,0,100,0.00,40.00,0,-999,0,0.00
2013-1-19,51,36,23,-100,-100,-100,0,0,100,0.00,40.00,0,-999,0,0.00
2013-1-20,21,15,10,-100,-100,-100,0,0,100,0.00,40.00,0,-999,0,0.00
2013-1-21,14,9,2,-100,-100,-100,0,0,100,0.00,40.00,0,-999,0,0.00
2013-1-22,21,16,9,-100,-100,-100,0,0,100,0.00,40.00,0,-999,0,0.00
2013-1-23,28,17,5,-100,-100,-100,0,0,100,0.00,40.00,0,-999,0,0.00
2013-1-24,23,13,2,-100,-100,-100,0,0,100,0.00,40.00,0,-999,0,0.00
2013-1-25,40,24,11,-100,-100,-100,0,0,100,0.00,40.00,0,-999,0,0.00
2013-1-26,38,27,12,-100,-100,-100,0,0,100,0.00,40.00,0,-999,0,0.00
2013-1-27,40,37,34,-100,-100,-100,0,0,100,0.00,40.00,0,-999,0,0.00
2013-1-28,40,39,35,-100,-100,-100,0,0,100,0.00,40.00,0,-999,0,0.00
2013-1-29,39,35,32,-100,-100,-100,0,0,100,0.00,40.00,0,-999,0,0.00
2013-1-30,32,24,16,-100,-100,-100,0,0,100,0.00,40.00,0,-999,0,0.00
2013-1-31,10,8,5,-100,-100,-100,0,0,100,0.00,40.00,0,-999,0,0.00